GFSFLT2_prec_precacc24_153.txt.gz
Total_Precipitation_Accumulation
0.00 0.00 0.00 0.00 0.00 0.03 0.07 0.06 0.14 0.11 0.12 0.16 0.11 0.10 0.09 0.09 0.08 0.07 0.03 0.00 0.00 0.00 0.00 0.00 0.00 0.00 0.00 0.00 0.00 0.00 0.04 0.17
0.01 0.00 0.00 0.00 0.00 0.00 0.11 0.14 0.11 0.10 0.14 0.24 0.22 0.16 0.13 0.10 0.09 0.08 0.06 0.02 0.02 0.01 0.00 0.00 0.00 0.00 0.00 0.00 0.00 0.00 0.03 0.09
0.01 0.02 0.01 0.00 0.01 0.00 0.05 0.14 0.13 0.11 0.10 0.16 0.20 0.16 0.25 0.32 0.21 0.13 0.16 0.12 0.08 0.06 0.04 0.01 0.00 0.00 0.00 0.00 0.00 0.00 0.02 0.10
0.00 0.01 0.02 0.00 0.01 0.02 0.01 0.05 0.08 0.08 0.08 0.10 0.12 0.08 0.10 0.11 0.20 0.27 0.20 0.16 0.09 0.06 0.04 0.02 0.00 0.00 0.00 0.00 0.00 0.02 0.11 0.11
0.00 0.00 0.04 0.05 0.02 0.02 0.02 0.03 0.03 0.04 0.04 0.04 0.04 0.06 0.05 0.03 0.08 0.13 0.18 0.23 0.11 0.06 0.02 0.01 0.00 0.00 0.02 0.01 0.00 0.04 0.10 0.08
0.00 0.02 0.09 0.27 0.27 0.13 0.09 0.10 0.06 0.02 0.01 0.06 0.07 0.07 0.07 0.05 0.05 0.06 0.09 0.16 0.18 0.24 0.16 0.09 0.06 0.03 0.04 0.01 0.02 0.05 0.09 0.12
0.00 0.00 0.04 0.14 0.26 0.40 0.35 0.12 0.16 0.15 0.07 0.06 0.08 0.10 0.10 0.11 0.06 0.07 0.05 0.10 0.12 0.15 0.13 0.13 0.12 0.10 0.05 0.01 0.01 0.05 0.04 0.05
0.00 0.00 0.00 0.05 0.21 0.10 0.26 0.32 0.28 0.26 0.17 0.09 0.15 0.16 0.15 0.18 0.14 0.11 0.09 0.10 0.14 0.15 0.12 0.12 0.10 0.12 0.08 0.04 0.02 0.01 0.00 0.02
0.00 0.00 0.00 0.00 0.07 0.13 0.11 0.30 0.48 0.33 0.22 0.20 0.14 0.20 0.18 0.22 0.22 0.16 0.10 0.09 0.11 0.13 0.13 0.13 0.11 0.10 0.09 0.09 0.03 0.01 0.00 0.00
0.00 0.00 0.00 0.00 0.04 0.17 0.12 0.16 0.35 0.32 0.30 0.17 0.15 0.10 0.16 0.21 0.28 0.24 0.25 0.20 0.15 0.09 0.07 0.10 0.10 0.09 0.10 0.10 0.09 0.01 0.00 0.00
0.00 0.00 0.00 0.00 0.05 0.10 0.10 0.11 0.22 0.22 0.18 0.32 0.37 0.32 0.32 0.29 0.23 0.27 0.33 0.29 0.22 0.15 0.08 0.06 0.07 0.08 0.10 0.11 0.14 0.06 0.01 0.00
0.00 0.00 0.00 0.00 0.03 0.13 0.19 0.29 0.26 0.26 0.31 0.38 0.47 0.46 0.54 0.53 0.45 0.33 0.34 0.30 0.24 0.23 0.19 0.15 0.13 0.09 0.08 0.09 0.15 0.19 0.11 0.03
0.00 0.00 0.00 0.00 0.03 0.11 0.14 0.15 0.15 0.15 0.20 0.32 0.48 0.59 0.64 0.85 0.86 0.72 0.45 0.34 0.25 0.26 0.28 0.26 0.30 0.37 0.40 0.25 0.16 0.22 0.22 0.15
0.00 0.00 0.00 0.00 0.00 0.04 0.11 0.17 0.17 0.08 0.08 0.22 0.34 0.30 0.43 0.67 0.86 0.98 1.17 0.86 0.58 0.41 0.41 0.41 0.63 0.87 0.89 0.59 0.41 0.42 0.30 0.25
0.00 0.00 0.00 0.00 0.00 0.06 0.13 0.16 0.18 0.18 0.19 0.09 0.05 0.19 0.21 0.36 0.68 0.73 0.67 0.83 0.96 0.99 1.06 1.05 0.92 0.90 0.96 1.13 1.04 0.73 0.58 0.38
0.00 0.00 0.00 0.00 0.00 0.03 0.13 0.20 0.25 0.12 0.06 0.08 0.07 0.20 0.25 0.28 0.35 0.39 0.69 0.85 0.57 0.71 0.57 0.76 0.97 1.11 1.33 0.96 0.62 0.50 0.42 0.38
0.00 0.00 0.00 0.00 0.00 0.00 0.07 0.16 0.12 0.09 0.15 0.26 0.25 0.21 0.27 0.33 0.38 0.41 0.50 0.55 0.54 0.55 0.37 0.26 0.29 0.38 0.39 0.71 1.09 0.91 0.50 0.25
0.00 0.00 0.00 0.00 0.00 0.01 0.06 0.14 0.29 0.60 0.58 0.61 0.51 0.43 0.47 0.52 0.45 0.49 0.88 0.99 0.77 0.56 0.81 0.71 0.52 0.38 0.39 0.51 0.41 0.38 0.48 0.54
0.02 0.02 0.02 0.01 0.02 0.02 0.07 0.14 0.28 0.43 0.67 1.47 2.19 1.83 1.70 1.74 1.53 1.23 1.23 1.37 1.70 1.02 0.83 1.13 1.39 1.00 0.73 0.51 0.50 0.46 0.30 0.24
0.05 0.07 0.10 0.08 0.06 0.07 0.12 0.14 0.18 0.42 0.53 0.73 1.78 2.49 2.24 2.47 2.77 2.86 2.28 1.83 2.07 1.97 1.32 1.20 1.63 1.86 1.54 1.19 0.84 0.85 0.86 0.72

GFSFLT2_prec_precacc24_156.txt.gz
Total_Precipitation_Accumulation
0.00 0.00 0.00 0.00 0.00 0.03 0.07 0.06 0.14 0.11 0.12 0.16 0.11 0.10 0.09 0.09 0.08 0.07 0.03 0.01 0.00 0.00 0.00 0.00 0.00 0.00 0.00 0.00 0.00 0.00 0.00 0.05
0.00 0.00 0.00 0.00 0.00 0.00 0.11 0.14 0.11 0.10 0.14 0.24 0.22 0.16 0.16 0.13 0.15 0.10 0.06 0.02 0.02 0.01 0.01 0.00 0.00 0.00 0.00 0.00 0.00 0.00 0.01 0.05
0.00 0.01 0.01 0.00 0.01 0.00 0.05 0.14 0.13 0.11 0.10 0.16 0.20 0.16 0.25 0.33 0.27 0.28 0.22 0.14 0.08 0.06 0.05 0.02 0.00 0.00 0.00 0.00 0.00 0.00 0.02 0.06
0.00 0.01 0.01 0.00 0.01 0.02 0.01 0.05 0.08 0.08 0.08 0.10 0.12 0.08 0.10 0.11 0.21 0.31 0.22 0.14 0.09 0.06 0.04 0.02 0.00 0.00 0.00 0.00 0.00 0.01 0.08 0.05
0.00 0.00 0.04 0.04 0.02 0.02 0.02 0.03 0.03 0.04 0.04 0.04 0.04 0.06 0.04 0.03 0.07 0.13 0.19 0.25 0.13 0.14 0.08 0.03 0.00 0.00 0.00 0.00 0.00 0.01 0.07 0.06
0.00 0.02 0.09 0.24 0.25 0.13 0.09 0.10 0.06 0.02 0.01 0.06 0.07 0.07 0.07 0.05 0.05 0.06 0.08 0.16 0.19 0.29 0.24 0.21 0.18 0.08 0.02 0.00 0.00 0.02 0.04 0.06
0.00 0.00 0.03 0.11 0.24 0.39 0.35 0.12 0.16 0.15 0.07 0.06 0.07 0.10 0.10 0.11 0.06 0.07 0.05 0.09 0.12 0.15 0.15 0.20 0.25 0.32 0.22 0.12 0.03 0.05 0.04 0.04
0.00 0.00 0.00 0.01 0.06 0.08 0.25 0.32 0.28 0.26 0.17 0.09 0.15 0.16 0.15 0.18 0.13 0.11 0.08 0.09 0.13 0.14 0.11 0.11 0.13 0.21 0.23 0.23 0.14 0.07 0.02 0.01
0.00 0.00 0.00 0.00 0.01 0.04 0.09 0.28 0.48 0.33 0.22 0.20 0.14 0.20 0.18 0.21 0.22 0.16 0.10 0.08 0.11 0.12 0.12 0.12 0.10 0.11 0.15 0.21 0.20 0.16 0.08 0.03
0.00 0.00 0.00 0.00 0.02 0.09 0.09 0.16 0.35 0.32 0.30 0.17 0.15 0.10 0.16 0.20 0.27 0.24 0.25 0.19 0.15 0.09 0.07 0.10 0.10 0.09 0.12 0.16 0.23 0.20 0.13 0.06
0.00 0.00 0.00 0.00 0.00 0.03 0.08 0.08 0.22 0.22 0.18 0.32 0.37 0.32 0.32 0.29 0.23 0.26 0.33 0.29 0.22 0.15 0.08 0.06 0.07 0.08 0.10 0.13 0.20 0.18 0.20 0.16
0.00 0.00 0.00 0.00 0.00 0.00 0.03 0.13 0.18 0.24 0.31 0.38 0.47 0.46 0.54 0.53 0.45 0.32 0.34 0.30 0.24 0.23 0.19 0.15 0.13 0.09 0.07 0.08 0.16 0.26 0.26 0.24
0.00 0.00 0.00 0.00 0.00 0.00 0.00 0.02 0.06 0.07 0.20 0.32 0.48 0.59 0.64 0.85 0.86 0.72 0.45 0.34 0.25 0.26 0.28 0.26 0.30 0.37 0.39 0.25 0.15 0.24 0.28 0.28
0.00 0.00 0.00 0.00 0.00 0.00 0.00 0.00 0.05 0.05 0.07 0.22 0.34 0.30 0.43 0.67 0.86 0.98 1.17 0.86 0.58 0.41 0.41 0.41 0.63 0.87 0.89 0.60 0.41 0.42 0.31 0.29
0.00 0.00 0.00 0.00 0.00 0.00 0.00 0.00 0.00 0.04 0.10 0.09 0.05 0.19 0.21 0.36 0.68 0.73 0.67 0.83 0.96 0.99 1.07 1.05 0.92 0.90 0.96 1.13 1.05 0.74 0.59 0.39
0.00 0.00 0.00 0.00 0.00 0.00 0.00 0.01 0.02 0.02 0.02 0.07 0.07 0.20 0.25 0.28 0.35 0.39 0.68 0.85 0.57 0.71 0.57 0.77 0.98 1.11 1.33 0.96 0.62 0.51 0.44 0.40
0.00 0.00 0.00 0.00 0.00 0.00 0.01 0.02 0.03 0.03 0.09 0.24 0.25 0.21 0.27 0.33 0.38 0.41 0.49 0.55 0.55 0.55 0.37 0.27 0.30 0.38 0.40 0.71 1.08 0.91 0.51 0.27
0.00 0.00 0.00 0.00 0.00 0.01 0.03 0.03 0.02 0.04 0.13 0.26 0.33 0.33 0.40 0.51 0.42 0.47 0.87 0.98 0.76 0.55 0.79 0.71 0.51 0.37 0.38 0.51 0.41 0.38 0.48 0.56
0.00 0.00 0.00 0.00 0.00 0.01 0.04 0.04 0.03 0.04 0.11 0.21 0.69 0.75 0.87 1.16 1.40 1.19 1.20 1.36 1.68 1.00 0.81 1.13 1.37 0.99 0.74 0.52 0.51 0.45 0.29 0.25
0.01 0.02 0.02 0.02 0.02 0.04 0.08 0.08 0.07 0.07 0.17 0.16 0.68 1.19 1.18 1.26 2.26 2.78 2.23 1.77 1.99 1.89 1.30 1.18 1.62 1.85 1.54 1.19 0.84 0.84 0.84 0.71

GFSFLT2_prec_precacc24_162.txt.gz
Total_Precipitation_Accumulation
0.00 0.00 0.00 0.00 0.00 0.03 0.07 0.06 0.14 0.11 0.12 0.16 0.11 0.10 0.09 0.09 0.08 0.07 0.03 0.01 0.01 0.00 0.00 0.00 0.00 0.00 0.00 0.00 0.00 0.00 0.00 0.00
0.00 0.00 0.00 0.00 0.00 0.00 0.11 0.14 0.11 0.10 0.14 0.24 0.22 0.16 0.16 0.13 0.16 0.12 0.08 0.04 0.02 0.01 0.01 0.01 0.00 0.00 0.00 0.00 0.00 0.00 0.00 0.00
0.00 0.00 0.00 0.00 0.00 0.00 0.05 0.14 0.13 0.11 0.10 0.16 0.20 0.16 0.25 0.33 0.27 0.30 0.24 0.15 0.10 0.07 0.05 0.03 0.00 0.00 0.00 0.00 0.00 0.00 0.00 0.00
0.00 0.00 0.00 0.00 0.00 0.00 0.01 0.05 0.08 0.08 0.08 0.10 0.12 0.08 0.10 0.11 0.21 0.31 0.22 0.14 0.10 0.07 0.05 0.04 0.00 0.00 0.00 0.00 0.00 0.00 0.00 0.01
0.00 0.00 0.00 0.00 0.00 0.00 0.02 0.02 0.03 0.04 0.04 0.04 0.04 0.06 0.04 0.03 0.07 0.13 0.19 0.25 0.13 0.14 0.09 0.05 0.05 0.06 0.04 0.01 0.00 0.00 0.00 0.02
0.00 0.00 0.00 0.00 0.00 0.00 0.01 0.05 0.04 0.01 0.01 0.06 0.07 0.07 0.07 0.05 0.05 0.06 0.08 0.16 0.19 0.29 0.24 0.21 0.21 0.17 0.09 0.04 0.12 0.03 0.01 0.03
0.00 0.00 0.00 0.00 0.00 0.00 0.00 0.03 0.06 0.08 0.06 0.06 0.07 0.10 0.10 0.11 0.06 0.07 0.05 0.09 0.12 0.15 0.15 0.20 0.26 0.32 0.24 0.20 0.14 0.12 0.07 0.09
0.00 0.00 0.00 0.00 0.00 0.00 0.00 0.00 0.02 0.08 0.08 0.06 0.15 0.16 0.15 0.18 0.13 0.11 0.08 0.09 0.13 0.14 0.11 0.11 0.13 0.21 0.23 0.23 0.15 0.13 0.10 0.08
0.00 0.00 0.00 0.00 0.00 0.00 0.00 0.00 0.00 0.01 0.05 0.06 0.08 0.18 0.18 0.21 0.22 0.16 0.10 0.08 0.11 0.12 0.12 0.12 0.10 0.11 0.15 0.21 0.21 0.20 0.13 0.07
0.00 0.00 0.00 0.00 0.00 0.00 0.00 0.00 0.00 0.00 0.01 0.02 0.05 0.06 0.14 0.20 0.27 0.24 0.25 0.19 0.15 0.09 0.07 0.10 0.10 0.09 0.11 0.15 0.22 0.21 0.15 0.06
0.00 0.00 0.00 0.00 0.00 0.00 0.00 0.00 0.00 0.00 0.00 0.01 0.04 0.08 0.19 0.26 0.22 0.26 0.33 0.29 0.22 0.15 0.08 0.06 0.07 0.08 0.10 0.13 0.20 0.18 0.20 0.18
0.00 0.00 0.00 0.00 0.00 0.00 0.00 0.00 0.00 0.00 0.00 0.00 0.02 0.04 0.18 0.38 0.42 0.32 0.34 0.30 0.24 0.23 0.19 0.15 0.13 0.09 0.07 0.08 0.16 0.26 0.26 0.24
0.00 0.00 0.00 0.00 0.00 0.00 0.00 0.00 0.00 0.00 0.00 0.00 0.00 0.01 0.10 0.51 0.71 0.68 0.45 0.34 0.25 0.26 0.28 0.26 0.30 0.37 0.39 0.25 0.15 0.24 0.28 0.28
0.00 0.00 0.00 0.00 0.00 0.00 0.00 0.00 0.00 0.00 0.00 0.00 0.00 0.00 0.03 0.13 0.52 0.90 1.15 0.85 0.57 0.40 0.41 0.41 0.63 0.87 0.89 0.60 0.41 0.42 0.31 0.29
0.00 0.00 0.00 0.00 0.00 0.00 0.00 0.00 0.00 0.00 0.00 0.00 0.00 0.00 0.01 0.05 0.32 0.62 0.65 0.82 0.96 0.99 1.07 1.06 0.93 0.90 0.96 1.16 1.08 0.75 0.59 0.39
0.00 0.00 0.00 0.00 0.00 0.00 0.00 0.00 0.01 0.01 0.02 0.01 0.00 0.00 0.01 0.03 0.11 0.23 0.60 0.83 0.57 0.71 0.58 0.77 0.99 1.12 1.33 0.96 0.64 0.52 0.45 0.41
0.00 0.00 0.00 0.00 0.00 0.00 0.00 0.01 0.02 0.02 0.02 0.02 0.01 0.01 0.00 0.02 0.05 0.08 0.24 0.45 0.52 0.55 0.37 0.28 0.31 0.40 0.42 0.73 1.09 0.92 0.52 0.28
0.00 0.00 0.00 0.00 0.00 0.00 0.01 0.02 0.01 0.02 0.03 0.03 0.02 0.02 0.02 0.02 0.02 0.05 0.12 0.44 0.65 0.52 0.78 0.71 0.49 0.38 0.40 0.53 0.43 0.41 0.50 0.58
0.00 0.00 0.00 0.00 0.00 0.00 0.01 0.02 0.02 0.02 0.03 0.04 0.03 0.03 0.03 0.04 0.02 0.03 0.07 0.22 1.02 0.89 0.75 1.10 1.34 0.94 0.72 0.55 0.53 0.47 0.32 0.27
0.00 0.00 0.00 0.01 0.00 0.01 0.02 0.02 0.02 0.03 0.03 0.04 0.05 0.07 0.08 0.05 0.03 0.03 0.06 0.13 0.39 1.21 1.03 1.04 1.56 1.75 1.46 1.19 0.85 0.85 0.85 0.71

GFSFLT2_prec_precacc24_165.txt.gz
Total_Precipitation_Accumulation
0.00 0.00 0.00 0.00 0.00 0.02 0.07 0.06 0.14 0.11 0.12 0.16 0.11 0.10 0.09 0.09 0.08 0.07 0.03 0.01 0.01 0.00 0.00 0.00 0.00 0.00 0.00 0.00 0.00 0.00 0.00 0.00
0.00 0.00 0.00 0.00 0.00 0.00 0.09 0.13 0.11 0.10 0.14 0.24 0.22 0.16 0.16 0.13 0.16 0.12 0.08 0.04 0.02 0.01 0.02 0.02 0.00 0.01 0.00 0.00 0.00 0.00 0.00 0.00
0.00 0.00 0.00 0.00 0.00 0.00 0.04 0.08 0.09 0.10 0.10 0.16 0.20 0.16 0.25 0.33 0.27 0.30 0.24 0.15 0.10 0.07 0.05 0.03 0.00 0.00 0.00 0.01 0.00 0.00 0.00 0.00
0.00 0.00 0.00 0.00 0.00 0.00 0.00 0.02 0.02 0.04 0.07 0.10 0.12 0.08 0.10 0.11 0.21 0.31 0.22 0.14 0.10 0.07 0.05 0.04 0.00 0.00 0.00 0.00 0.00 0.00 0.00 0.00
0.00 0.00 0.00 0.00 0.00 0.00 0.00 0.00 0.01 0.01 0.01 0.03 0.04 0.06 0.04 0.03 0.07 0.13 0.19 0.25 0.13 0.14 0.09 0.05 0.05 0.06 0.04 0.01 0.01 0.01 0.01 0.00
0.00 0.00 0.00 0.00 0.00 0.00 0.00 0.00 0.00 0.00 0.01 0.01 0.04 0.06 0.07 0.05 0.05 0.06 0.08 0.16 0.19 0.29 0.24 0.21 0.21 0.17 0.09 0.04 0.12 0.03 0.02 0.02
0.00 0.00 0.00 0.00 0.00 0.00 0.00 0.00 0.00 0.00 0.01 0.01 0.03 0.06 0.07 0.09 0.06 0.07 0.05 0.09 0.12 0.15 0.15 0.20 0.26 0.32 0.24 0.20 0.14 0.12 0.07 0.09
0.00 0.00 0.00 0.00 0.00 0.00 0.00 0.00 0.00 0.00 0.00 0.01 0.04 0.07 0.11 0.16 0.12 0.11 0.08 0.09 0.13 0.14 0.11 0.11 0.13 0.21 0.23 0.23 0.14 0.13 0.10 0.07
0.00 0.00 0.00 0.00 0.00 0.00 0.00 0.00 0.00 0.00 0.00 0.00 0.00 0.04 0.11 0.18 0.19 0.15 0.10 0.08 0.11 0.12 0.12 0.12 0.10 0.11 0.15 0.21 0.21 0.20 0.13 0.07
0.00 0.00 0.00 0.00 0.00 0.00 0.00 0.00 0.00 0.00 0.00 0.00 0.00 0.01 0.05 0.12 0.23 0.22 0.24 0.19 0.15 0.09 0.07 0.10 0.10 0.09 0.11 0.15 0.22 0.21 0.15 0.06
0.00 0.00 0.00 0.00 0.00 0.00 0.00 0.00 0.00 0.00 0.00 0.00 0.00 0.00 0.01 0.05 0.11 0.19 0.27 0.29 0.22 0.15 0.08 0.06 0.07 0.08 0.10 0.13 0.20 0.18 0.20 0.18
0.00 0.00 0.00 0.00 0.00 0.00 0.00 0.00 0.00 0.00 0.00 0.00 0.00 0.00 0.00 0.01 0.04 0.12 0.24 0.27 0.23 0.22 0.19 0.15 0.13 0.09 0.07 0.08 0.16 0.25 0.25 0.24
0.00 0.00 0.00 0.00 0.00 0.00 0.00 0.00 0.00 0.00 0.00 0.00 0.00 0.00 0.00 0.00 0.02 0.05 0.12 0.21 0.21 0.24 0.25 0.24 0.30 0.36 0.39 0.25 0.15 0.23 0.28 0.28
0.00 0.00 0.00 0.00 0.00 0.00 0.00 0.00 0.00 0.00 0.00 0.00 0.00 0.00 0.00 0.00 0.01 0.03 0.12 0.41 0.40 0.32 0.38 0.39 0.62 0.86 0.89 0.60 0.40 0.42 0.31 0.29
0.00 0.00 0.00 0.00 0.00 0.00 0.00 0.00 0.00 0.00 0.00 0.00 0.00 0.00 0.00 0.01 0.02 0.02 0.04 0.18 0.50 0.82 0.99 1.02 0.92 0.89 0.95 1.16 1.08 0.75 0.59 0.39
0.00 0.00 0.00 0.00 0.00 0.00 0.00 0.00 0.01 0.01 0.01 0.01 0.00 0.00 0.00 0.01 0.02 0.02 0.02 0.05 0.17 0.50 0.41 0.66 0.94 1.12 1.32 0.96 0.64 0.53 0.47 0.41
0.00 0.00 0.00 0.00 0.00 0.00 0.00 0.01 0.01 0.01 0.02 0.02 0.01 0.01 0.00 0.01 0.03 0.02 0.03 0.04 0.14 0.20 0.15 0.16 0.25 0.37 0.42 0.72 1.09 0.93 0.53 0.30
0.00 0.00 0.00 0.00 0.00 0.00 0.01 0.01 0.01 0.01 0.02 0.03 0.01 0.02 0.02 0.02 0.02 0.02 0.02 0.03 0.05 0.11 0.22 0.36 0.35 0.29 0.36 0.50 0.43 0.42 0.51 0.59
0.00 0.00 0.00 0.00 0.00 0.00 0.01 0.01 0.01 0.02 0.02 0.02 0.02 0.02 0.02 0.02 0.02 0.02 0.03 0.03 0.03 0.10 0.23 0.44 0.94 0.73 0.58 0.43 0.45 0.43 0.31 0.28
0.00 0.00 0.00 0.00 0.00 0.00 0.02 0.02 0.02 0.02 0.02 0.03 0.04 0.04 0.04 0.02 0.03 0.02 0.02 0.03 0.03 0.04 0.18 0.29 0.74 1.35 1.21 0.93 0.68 0.69 0.72 0.63